Location: ???????
(55.3754°N, 39.3545°E)
Time: 21:27:21
(UTC+00:00)

Cosmos 2016 Rocket - Pass Details

Date: 14 April 2026
Orbit: 945 x 1000 km, 83.0° (Epoch: 11 May)

Event Time Altitude Azimuth Distance (km) Brightness Sun altitude
Exits shadow 22:10:47 40° 240° (WSW) 1,443 4.5 -24.2°
Maximum altitude 22:12:42 53° 289° (WNW) 1,217 4.4 -24.1°
Drops below altitude 10° 22:18:56 10° 6° (N) 2,770 7.4 -23.9°
Sets 22:21:32 0° 11° (N) 3,716 8.5 -23.8°
